TimeEDT,TemperatureF,Dew PointF,Humidity,Sea Level PressureIn,VisibilityMPH,Wind Direction,Wind SpeedMPH,Gust SpeedMPH,PrecipitationIn,Events,Conditions,WindDirDegrees,DateUTC
12:56 AM,72.0,68.0,87,29.89,7.0,West,6.9,-,N/A,,Overcast,260,2013-08-13 04:56:00
1:56 AM,71.1,66.0,84,29.87,10.0,West,8.1,-,N/A,,Clear,280,2013-08-13 05:56:00
2:56 AM,70.0,66.0,87,29.86,10.0,WNW,9.2,-,N/A,,Partly Cloudy,290,2013-08-13 06:56:00
3:56 AM,69.1,64.9,87,29.86,10.0,WNW,9.2,-,N/A,,Partly Cloudy,300,2013-08-13 07:56:00
4:56 AM,68.0,64.9,90,29.87,9.0,NW,10.4,-,N/A,,Partly Cloudy,310,2013-08-13 08:56:00
5:19 AM,68.0,66.2,94,29.89,8.0,NW,8.1,-,N/A,,Mostly Cloudy,310,2013-08-13 09:19:00
5:41 AM,68.0,66.2,94,29.89,7.0,NNW,9.2,-,N/A,,Scattered Clouds,330,2013-08-13 09:41:00
5:56 AM,66.9,64.9,93,29.87,6.0,NNW,8.1,-,N/A,,Partly Cloudy,330,2013-08-13 09:56:00
6:46 AM,66.2,64.4,94,29.91,5.0,NNW,5.8,-,N/A,,Mostly Cloudy,330,2013-08-13 10:46:00
6:56 AM,66.9,64.9,93,29.88,4.0,NNW,6.9,-,N/A,,Overcast,340,2013-08-13 10:56:00
7:56 AM,68.0,64.9,90,29.91,5.0,NNW,8.1,-,N/A,,Overcast,340,2013-08-13 11:56:00
8:56 AM,68.0,63.0,84,29.92,8.0,North,13.8,-,N/A,,Mostly Cloudy,350,2013-08-13 12:56:00
9:13 AM,68.0,62.6,83,29.95,9.0,North,12.7,-,N/A,,Mostly Cloudy,350,2013-08-13 13:13:00
9:56 AM,69.1,62.1,78,29.94,10.0,NNW,10.4,-,N/A,,Mostly Cloudy,330,2013-08-13 13:56:00
10:28 AM,69.8,62.6,78,29.97,10.0,NNW,11.5,19.6,N/A,,Mostly Cloudy,330,2013-08-13 14:28:00
10:56 AM,71.1,62.1,73,29.95,10.0,NNW,12.7,-,N/A,,Mostly Cloudy,340,2013-08-13 14:56:00
11:56 AM,73.0,62.1,68,29.96,10.0,North,12.7,-,N/A,,Mostly Cloudy,350,2013-08-13 15:56:00
12:56 PM,75.0,61.0,62,29.97,10.0,NNW,11.5,-,N/A,,Scattered Clouds,340,2013-08-13 16:56:00
1:56 PM,75.0,57.0,53,29.97,10.0,North,11.5,-,N/A,,Scattered Clouds,350,2013-08-13 17:56:00
2:56 PM,75.9,55.9,50,29.97,10.0,North,15.0,-,N/A,,Scattered Clouds,350,2013-08-13 18:56:00
3:56 PM,75.9,57.0,52,29.96,10.0,NNW,13.8,-,N/A,,Mostly Cloudy,340,2013-08-13 19:56:00
4:56 PM,73.9,57.0,55,29.97,10.0,NNW,16.1,-,N/A,,Mostly Cloudy,340,2013-08-13 20:56:00
5:56 PM,73.0,55.0,53,29.98,10.0,North,17.3,23.0,N/A,,Mostly Cloudy,350,2013-08-13 21:56:00
6:56 PM,71.1,51.1,49,29.99,10.0,NNW,13.8,20.7,N/A,,Mostly Cloudy,340,2013-08-13 22:56:00
7:56 PM,68.0,48.9,50,30.00,10.0,North,13.8,21.9,N/A,,Scattered Clouds,350,2013-08-13 23:56:00
8:56 PM,63.0,46.9,56,30.02,10.0,North,9.2,-,N/A,,Scattered Clouds,350,2013-08-14 00:56:00
9:56 PM,62.1,48.0,60,30.05,10.0,North,10.4,-,N/A,,Clear,360,2013-08-14 01:56:00
10:56 PM,59.0,48.9,69,30.06,10.0,North,3.5,-,N/A,,Clear,360,2013-08-14 02:56:00
11:56 PM,57.0,48.9,74,30.08,10.0,NW,3.5,-,N/A,,Clear,320,2013-08-14 03:56:00